H1 CPF 1 NER 2022 2 14 9 5451 glonass142 H2 2001801 9142 45358 2022 2 14 0 0 0 2022 2 17 23 45 0 900 1 1 0 0 0 H9 10 0 59624 0.00000 0 -18692562.275 -17350180.685 -659107.977 10 0 59624 900.00000 0 -18716256.100 -17151421.749 2557380.759 10 0 59624 1800.00000 0 -18414693.116 -16711338.636 5724227.887 10 0 59624 2700.00000 0 -17764183.555 -16081004.038 8779993.298 10 0 59624 3600.00000 0 -16753361.124 -15316663.600 11665428.436 10 0 59624 4500.00000 0 -15383861.002 -14477215.963 14324620.024 10 0 59624 5400.00000 0 -13670464.956 -13621600.512 16706066.375 10 0 59624 6300.00000 0 -11640707.428 -12806202.815 18763666.114 10 0 59624 7200.00000 0 -9333958.848 -12082386.554 20457601.005 10 0 59624 8100.00000 0 -6800023.928 -11494255.005 21755096.902 10 0 59624 9000.00000 0 -4097312.453 -11076735.297 22631049.234 10 0 59624 9900.00000 0 -1290657.643 -10854064.972 23068501.922 10 0 59624 10800.00000 0 1551128.753 -10838743.608 23058971.346 10 0 59624 11700.00000 0 4357864.771 -11030992.984 22602609.652 10 0 59624 12600.00000 0 7060663.369 -11418748.256 21708204.413 10 0 59624 13500.00000 0 9594545.592 -11978180.735 20393014.444 10 0 59624 14400.00000 0 11900894.899 -12674730.926 18682444.343 10 0 59624 15300.00000 0 13929652.003 -13464609.311 16609563.143 10 0 59624 16200.00000 0 15641160.023 -14296702.853 14214475.284 10 0 59624 17100.00000 0 17007583.875 -15114808.119 11543554.807 10 0 59624 18000.00000 0 18013844.998 -15860097.920 8648556.498 10 0 59624 18900.00000 0 18658032.559 -16473718.178 5585620.167 10 0 59624 19800.00000 0 18951273.862 -16899405.761 2414186.590 10 0 59624 20700.00000 0 18917069.236 -17086016.616 -804154.169 10 0 59624 21600.00000 0 18590119.273 -16989856.776 -4006859.830 10 0 59624 22500.00000 0 18014693.733 -16576716.705 -7131654.835 10 0 59624 23400.00000 0 17242611.002 -15823521.644 -10117746.840 10 0 59624 24300.00000 0 16330913.606 -14719526.590 -12907016.430 10 0 59624 25200.00000 0 15339338.421 -13267003.709 -15445156.061 10 0 59624 26100.00000 0 14327688.978 -11481391.419 -17682735.202 10 0 59624 27000.00000 0 13353221.542 -9390897.175 -19576170.196 10 0 59624 27900.00000 0 12468156.014 -7035569.105 -21088579.412 10 0 59624 28800.00000 0 11717417.365 -4465874.242 -22190506.485 10 0 59624 29700.00000 0 11136703.434 -1740841.878 -22860497.402 10 0 59624 30600.00000 0 10750960.892 1074151.101 -23085520.045 10 0 59624 31500.00000 0 10573333.824 3909860.798 -22861218.011 10 0 59624 32400.00000 0 10604629.164 6695819.757 -22191993.920 10 0 59624 33300.00000 0 10833321.262 9363033.292 -21090920.677 10 0 59624 34200.00000 0 11236094.942 11846616.525 -19579482.634 10 0 59624 35100.00000 0 11778903.583 14088262.543 -17687151.897 10 0 59624 36000.00000 0 12418496.847 16038439.244 -15450808.250 10 0 59624 36900.00000 0 13104352.850 17658223.809 -12914014.361 10 0 59624 37800.00000 0 13780932.351 18920699.160 -10126160.742 10 0 59624 38700.00000 0 14390159.007 19811855.203 -7141497.571 10 0 59624 39600.00000 0 14874020.144 20330958.572 -4018072.841 10 0 59624 40500.00000 0 15177177.568 20490377.066 -816598.084 10 0 59624 41400.00000 0 15249477.617 20314867.953 2400735.695 10 0 59624 42300.00000 0 15048254.143 19840361.816 5571468.214 10 0 59624 43200.00000 0 14540327.042 19112294.790 8634082.386 10 0 59624 44100.00000 0 13703612.020 18183560.738 11529195.346 10 0 59624 45000.00000 0 12528273.840 17112170.620 14200704.914 10 0 59624 45900.00000 0 11017374.548 15958718.130 16596869.681 10 0 59624 46800.00000 0 9186989.360 14783758.349 18671302.460 10 0 59624 47700.00000 0 7065785.116 13645209.276 20383858.684 10 0 59624 48600.00000 0 4694078.380 12595884.732 21701403.669 10 0 59624 49500.00000 0 2122411.609 11681261.152 22598445.009 10 0 59624 50400.00000 0 -590294.367 10937570.908 23057618.895 10 0 59624 51300.00000 0 -3378936.165 10390300.945 23070021.833 10 0 59624 52200.00000 0 -6174682.448 10053158.723 22635381.920 10 0 59624 53100.00000 0 -8907587.046 9927548.149 21762066.558 10 0 59624 54000.00000 0 -11509253.991 10002577.108 20466926.278 10 0 59624 54900.00000 0 -13915445.510 10255596.348 18774977.082 10 0 59624 55800.00000 0 -16068525.977 10653247.479 16718926.600 10 0 59624 56700.00000 0 -17919641.394 11152976.704 14338552.057 10 0 59624 57600.00000 0 -19430544.413 11704951.381 11679940.885 10 0 59624 58500.00000 0 -20574989.143 12254299.496 8794607.523 10 0 59624 59400.00000 0 -21339637.598 12743578.250 5738502.491 10 0 59624 60300.00000 0 -21724439.714 13115367.883 2570932.151 10 0 59624 61200.00000 0 -21742470.643 13314881.156 -646590.240 10 0 59624 62100.00000 0 -21419231.894 13292477.688 -3851539.974 10 0 59624 63000.00000 0 -20791445.406 13005975.955 -6981599.398 10 0 59624 63900.00000 0 -19905391.210 12422663.901 -9975875.143 10 0 59624 64800.00000 0 -18814858.776 11520921.611 -12776089.728 10 0 59624 65700.00000 0 -17578798.690 10291385.707 -15327723.545 10 0 59624 66600.00000 0 -16258774.068 8737604.522 -17581084.076 10 0 59624 67500.00000 0 -14916319.741 6876154.590 -19492280.862 10 0 59624 68400.00000 0 -13610321.082 4736211.837 -21024086.608 10 0 59624 69300.00000 0 -12394523.478 2358594.016 -22146667.205 10 0 59624 70200.00000 0 -11315277.792 -205686.731 -22838166.202 10 0 59624 71100.00000 0 -10409616.949 -2897301.630 -23085132.251 10 0 59624 72000.00000 0 -9703744.698 -5650835.494 -22882781.174 10 0 59624 72900.00000 0 -9211999.905 -8397276.813 -22235087.666 10 0 59624 73800.00000 0 -8936339.520 -11066664.191 -21154704.983 10 0 59624 74700.00000 0 -8866361.327 -13590778.898 -19662714.358 10 0 59624 75600.00000 0 -8979864.646 -15905771.512 -17788209.231 10 0 59624 76500.00000 0 -9243924.328 -17954613.374 -15567722.620 10 0 59624 77400.00000 0 -9616431.682 -19689270.875 -13044509.135 10 0 59624 78300.00000 0 -10048036.149 -21072512.392 -10267695.950 10 0 59624 79200.00000 0 -10484404.606 -22079273.205 -7291319.754 10 0 59624 80100.00000 0 -10868701.827 -22697522.293 -4173268.991 10 0 59624 81000.00000 0 -11144186.326 -22928596.091 -974152.594 10 0 59624 81900.00000 0 -11256811.121 -22786986.725 2243882.222 10 0 59624 82800.00000 0 -11157718.944 -22299595.204 5418359.492 10 0 59624 83700.00000 0 -10805526.138 -21504482.558 8487687.447 10 0 59624 84600.00000 0 -10168298.629 -20449172.810 11392351.175 10 0 59624 85500.00000 0 -9225136.616 -19188580.248 14076061.799 10 0 59625 0.00000 0 -7967301.338 -17782649.002 16486840.090 10 0 59625 900.00000 0 -6398835.728 -16293803.556 18578015.435 10 0 59625 1800.00000 0 -4536654.465 -14784318.974 20309118.441 10 0 59625 2700.00000 0 -2410096.907 -13313718.017 21646655.342 10 0 59625 3600.00000 0 -59962.455 -11936305.110 22564747.038 10 0 59625 4500.00000 0 2462933.121 -10698938.515 23045622.778 10 0 59625 5400.00000 0 5099621.527 -9639132.768 23079959.622 10 0 59625 6300.00000 0 7785190.125 -8783569.506 22667061.691 10 0 59625 7200.00000 0 10451244.389 -8147077.942 21814875.946 10 0 59625 8100.00000 0 13028524.173 -7732126.857 20539844.033 10 0 59625 9000.00000 0 15449566.893 -7528848.907 18866592.458 10 0 59625 9900.00000 0 17651308.341 -7515596.164 16827466.224 10 0 59625 10800.00000 0 19577514.198 -7660003.740 14461913.823 10 0 59625 11700.00000 0 21180941.815 -7920517.228 11815734.238 10 0 59625 12600.00000 0 22425142.459 -8248320.180 8940199.405 10 0 59625 13500.00000 0 23285828.842 -8589580.871 5891068.082 10 0 59625 14400.00000 0 23751750.451 -8887923.811 2727509.466 10 0 59625 15300.00000 0 23825039.538 -9087021.649 -489042.954 10 0 59625 16200.00000 0 23521012.712 -9133197.490 -3696085.135 10 0 59625 17100.00000 0 22867435.954 -8977926.844 -6831260.438 10 0 59625 18000.00000 0 21903283.552 -8580132.220 -9833577.489 10 0 59625 18900.00000 0 20677042.964 -7908171.890 -12644603.594 10 0 59625 19800.00000 0 19244636.961 -6941437.027 -15209609.681 10 0 59625 20700.00000 0 17667050.729 -5671488.005 -17478643.579 10 0 59625 21600.00000 0 16007764.176 -4102680.011 -19407510.036 10 0 59625 22500.00000 0 14330097.909 -2252249.840 -20958637.803 10 0 59625 23400.00000 0 12694584.997 -149858.582 -22101816.394 10 0 59625 24300.00000 0 11156479.397 2163392.024 -22814787.938 10 0 59625 25200.00000 0 9763505.895 4636429.580 -23083682.513 10 0 59625 26100.00000 0 8553946.170 7210106.650 -22903288.426 10 0 59625 27000.00000 0 7555141.051 9819443.477 -22277152.319 10 0 59625 27900.00000 0 6782471.356 12396124.542 -21217507.277 10 0 59625 28800.00000 0 6238859.335 14871144.957 -19745030.497 10 0 59625 29700.00000 0 5914810.643 17177496.379 -17888435.465 10 0 59625 30600.00000 0 5788993.802 19252780.514 -15683906.792 10 0 59625 31500.00000 0 5829331.401 21041641.116 -13174389.034 10 0 59625 32400.00000 0 5994555.572 22497913.240 -10408743.730 10 0 59625 33300.00000 0 6236160.672 23586400.338 -7440791.482 10 0 59625 34200.00000 0 6500669.344 24284205.484 -4328258.358 10 0 59625 35100.00000 0 6732114.967 24581561.991 -1131647.685 10 0 59625 36000.00000 0 6874634.519 24482129.742 2086940.225 10 0 59625 36900.00000 0 6875061.423 24002746.135 5265016.824 10 0 59625 37800.00000 0 6685408.241 23172643.523 8340918.698 10 0 59625 38700.00000 0 6265133.946 22032167.307 11255001.763 10 0 59625 39600.00000 0 5583099.997 20631049.636 13950793.117 10 0 59625 40500.00000 0 4619132.666 19026312.003 16376078.550 10 0 59625 41400.00000 0 3365125.804 17279885.096 18483905.323 10 0 59625 42300.00000 0 1825637.634 15456045.659 20233481.570 10 0 59625 43200.00000 0 17956.150 13618777.212 21590956.048 10 0 59625 44100.00000 0 -2028370.225 11829164.121 22530064.246 10 0 59625 45000.00000 0 -4272517.997 10142926.819 23032629.403 10 0 59625 45900.00000 0 -6663850.166 8608199.717 23088909.660 10 0 59625 46800.00000 0 -9143794.640 7263643.160 22697785.236 10 0 59625 47700.00000 0 -11648063.031 6136966.939 21866782.230 10 0 59625 48600.00000 0 -14109119.362 5243925.874 20611932.447 10 0 59625 49500.00000 0 -16458797.826 4587828.562 18957471.407 10 0 59625 50400.00000 0 -18630962.205 4159579.357 16935379.481 10 0 59625 51300.00000 0 -20564097.561 3938251.555 14584773.958 10 0 59625 52200.00000 0 -22203727.125 3892167.809 11951162.528 10 0 59625 53100.00000 0 -23504553.941 3980442.569 9085571.507 10 0 59625 54000.00000 0 -24432237.895 4154921.868 6043564.625 10 0 59625 54900.00000 0 -24964733.439 4362438.885 2884170.586 10 0 59625 55800.00000 0 -25093131.338 4547290.020 -331260.175 10 0 59625 56700.00000 0 -24821968.409 4653826.598 -3540247.480 10 0 59625 57600.00000 0 -24168991.406 4629051.911 -6680398.768 10 0 59625 58500.00000 0 -23164384.285 4425112.809 -9690627.568 10 0 59625 59400.00000 0 -21849490.783 4001579.089 -12512348.683 10 0 59625 60300.00000 0 -20275085.688 3327412.752 -15090626.051 10 0 59625 61200.00000 0 -18499267.421 2382542.193 -17375250.018 10 0 59625 62100.00000 0 -16585060.632 1158973.067 -19321722.352 10 0 59625 63000.00000 0 -14597829.768 -338612.816 -20892129.212 10 0 59625 63900.00000 0 -12602612.585 -2092797.414 -22055884.603 10 0 59625 64800.00000 0 -10661485.796 -4073909.273 -22790329.586 10 0 59625 65700.00000 0 -8831073.491 -6241030.269 -23081175.474 10 0 59625 66600.00000 0 -7160302.854 -8543485.065 -22922782.365 10 0 59625 67500.00000 0 -5688500.972 -10922751.723 -22318267.684 10 0 59625 68400.00000 0 -4443911.964 -13314714.072 -21279442.750 10 0 59625 69300.00000 0 -3442695.828 -15652161.932 -19826578.782 10 0 59625 70200.00000 0 -2688449.903 -17867434.835 -17988007.080 10 0 59625 71100.00000 0 -2172271.632 -19895098.824 -15799561.394 10 0 59625 72000.00000 0 -1873358.522 -21674544.326 -13303873.652 10 0 59625 72900.00000 0 -1760118.312 -23152396.574 -10549537.112 10 0 59625 73800.00000 0 -1791740.890 -24284637.834 -7590153.674 10 0 59625 74700.00000 0 -1920163.980 -25038352.912 -4483284.478 10 0 59625 75600.00000 0 -2092348.040 -25393025.381 -1289324.807 10 0 59625 76500.00000 0 -2252762.922 -25341330.989 1929674.238 10 0 59625 77400.00000 0 -2345980.075 -24889395.924 5111213.723 10 0 59625 78300.00000 0 -2319259.927 -24056510.269 8193560.657 10 0 59625 79200.00000 0 -2125024.549 -22874309.756 11116943.763 10 0 59625 80100.00000 0 -1723110.961 -21385461.218 13824707.967 10 0 59625 81000.00000 0 -1082709.898 -19641907.648 16264405.601 10 0 59625 81900.00000 0 -183908.388 -17702746.857 18388803.795 10 0 59625 82800.00000 0 981228.776 -15631832.630 20156789.339 10 0 59625 83700.00000 0 2408084.189 -13495198.294 21534154.618 10 0 59625 84600.00000 0 4079444.152 -11358409.513 22494250.546 10 0 59625 85500.00000 0 5965988.600 -9283955.693 23018494.883 10 0 59626 0.00000 0 8027295.031 -7328787.499 23096727.092 10 0 59626 900.00000 0 10213317.046 -5542100.561 22727403.428 10 0 59626 1800.00000 0 12466274.590 -3963458.857 21917628.732 10 0 59626 2700.00000 0 14722882.632 -2621331.053 20683024.332 10 0 59626 3600.00000 0 16916824.476 -1532102.379 19047433.853 10 0 59626 4500.00000 0 18981369.358 -699601.354 17042471.877 10 0 59626 5400.00000 0 20852026.428 -115160.773 14706923.075 10 0 59626 6300.00000 0 22469125.443 241789.895 12086002.166 10 0 59626 7200.00000 0 23780216.900 402625.585 9230487.892 10 0 59626 8100.00000 0 24742191.393 407966.343 6195746.729 10 0 59626 9000.00000 0 25323029.161 305723.262 3040664.405 10 0 59626 9900.00000 0 25503105.767 148832.089 -173494.398 10 0 59626 10800.00000 0 25275998.267 -7229.528 -3384276.206 10 0 59626 11700.00000 0 24648756.941 -107035.687 -6529255.435 10 0 59626 12600.00000 0 23641630.171 -97806.243 -9547253.363 10 0 59626 13500.00000 0 22287253.131 68109.669 -12379535.006 10 0 59626 14400.00000 0 20629333.675 430967.033 -14970959.820 10 0 59626 15300.00000 0 18720890.206 1021672.663 -17271062.919 10 0 59626 16200.00000 0 16622115.322 1860231.344 -19235045.061 10 0 59626 17100.00000 0 14397954.843 2954657.694 -20824651.530 10 0 59626 18000.00000 0 12115503.937 4300401.185 -22008922.254 10 0 59626 18900.00000 0 9841329.604 5880310.044 -22764798.389 10 0 59626 19800.00000 0 7638831.754 7665136.841 -23077573.350 10 0 59626 20700.00000 0 5565753.401 9614565.572 -22941179.563 10 0 59626 21600.00000 0 3671943.901 11678718.027 -22358305.405 10 0 59626 22500.00000 0 1997468.352 13800076.850 -21340340.214 10 0 59626 23400.00000 0 571141.572 15915745.098 -19907148.588 10 0 59626 24300.00000 0 -590453.032 17959947.818 -18086678.585 10 0 59626 25200.00000 0 -1483419.961 19866670.925 -15914411.626 10 0 59626 26100.00000 0 -2116465.862 21572326.731 -13432665.149 10 0 59626 27000.00000 0 -2510276.911 23018334.382 -10689761.930 10 0 59626 27900.00000 0 -2696387.427 24153507.000 -7739082.652 10 0 59626 28800.00000 0 -2715589.228 24936145.484 -4638020.763 10 0 59626 29700.00000 0 -2615950.637 25335751.389 -1446860.558 10 0 59626 30600.00000 0 -2450530.408 25334287.461 1772399.130 10 0 59626 31500.00000 0 -2274884.488 24926933.552 4957252.065 10 0 59626 32400.00000 0 -2144472.070 24122307.000 8045898.723 10 0 59626 33300.00000 0 -2112071.286 22942139.101 10978443.550 10 0 59626 34200.00000 0 -2225314.070 21420422.075 13698052.069 10 0 59626 35100.00000 0 -2524444.419 19602063.021 16152045.717 10 0 59626 36000.00000 0 -3040394.492 17541101.617 18292913.830 10 0 59626 36900.00000 0 -3793259.424 15298566.233 20079223.944 10 0 59626 37800.00000 0 -4791234.899 12940057.728 21476413.909 10 0 59626 38700.00000 0 -6030062.196 10533160.966 22457451.594 10 0 59626 39600.00000 0 -7493004.268 8144790.926 23003350.490 10 0 59626 40500.00000 0 -9151354.580 5838582.492 23103532.177 10 0 59626 41400.00000 0 -10965458.468 3672430.963 22756029.303 10 0 59626 42300.00000 0 -12886205.680 1696284.063 21967525.394 10 0 59626 43200.00000 0 -14856933.385 -49724.274 20753230.654 10 0 59626 44100.00000 0 -16815661.956 -1536722.012 19136595.606 10 0 59626 45000.00000 0 -18697571.799 -2748069.721 17148867.281 10 0 59626 45900.00000 0 -20437619.314 -3679814.236 14828495.446 10 0 59626 46800.00000 0 -21973183.824 -4340606.806 12220399.110 10 0 59626 47700.00000 0 -23246635.455 -4751089.425 9375106.344 10 0 59626 48600.00000 0 -24207716.714 -4942775.214 6347783.009 10 0 59626 49500.00000 0 -24815637.728 -4956469.982 3197168.361 10 0 59626 50400.00000 0 -25040796.548 -4840301.499 -15562.231 10 0 59626 51300.00000 0 -24866051.306 -4647439.852 -3227985.522 10 0 59626 52200.00000 0 -24287489.570 -4433605.582 -6377646.344 10 0 59626 53100.00000 0 -23314661.257 -4254471.616 -9403277.023 10 0 59626 54000.00000 0 -21970264.137 -4163069.841 -12245995.899 10 0 59626 54900.00000 0 -20289294.028 -4207313.159 -14850460.809 10 0 59626 55800.00000 0 -18317694.582 -4427739.195 -17165954.190 10 0 59626 56700.00000 0 -16110562.762 -4855572.475 -19147377.951 10 0 59626 57600.00000 0 -13729984.900 -5511188.418 -20756138.153 10 0 59626 58500.00000 0 -11242593.922 -6403045.390 -21960901.758 10 0 59626 59400.00000 0 -8716949.970 -7527131.193 -22738210.483 10 0 59626 60300.00000 0 -6220853.943 -8866948.488 -23072939.695 10 0 59626 61200.00000 0 -3818706.304 -10394040.753 -22958593.378 10 0 59626 62100.00000 0 -1569021.295 -12069037.443 -22397429.534 10 0 59626 63000.00000 0 477800.015 -13843175.073 -21400413.703 10 0 59626 63900.00000 0 2281345.336 -15660230.641 -19987001.648 10 0 59626 64800.00000 0 3812638.004 -17458786.459 -18184755.639 10 0 59626 65700.00000 0 5055095.733 -19174731.310 -16028801.993 10 0 59626 66600.00000 0 6004962.595 -20743892.818 -13561140.723 10 0 59626 67500.00000 0 6671197.848 -22104690.312 -10829821.093 10 0 59626 68400.00000 0 7074828.215 -23200696.630 -7887999.520 10 0 59626 69300.00000 0 7247792.801 -23983001.049 -4792898.766 10 0 59626 70200.00000 0 7231331.288 -24412274.095 -1604689.241 10 0 59626 71100.00000 0 7073985.230 -24460447.605 1614685.228 10 0 59626 72000.00000 0 6829298.401 -24111939.760 4802713.657 10 0 59626 72900.00000 0 6553314.633 -23364374.142 7897532.323 10 0 59626 73800.00000 0 6301979.833 -22228763.190 10839123.500 10 0 59626 74700.00000 0 6128558.420 -20729149.009 13570475.148 10 0 59626 75600.00000 0 6081173.521 -18901717.110 16038679.379 10 0 59626 76500.00000 0 6200574.606 -16793420.526 18195949.015 10 0 59626 77400.00000 0 6518226.353 -14460171.935 20000533.320 10 0 59626 78300.00000 0 7054798.871 -11964678.962 21417516.266 10 0 59626 79200.00000 0 7819122.508 -9374012.206 22419483.019 10 0 59626 80100.00000 0 8807651.054 -6757006.303 22987042.820 10 0 59626 81000.00000 0 10004456.102 -4181600.725 23109199.100 10 0 59626 81900.00000 0 11381753.463 -1712229.264 22783560.355 10 0 59626 82800.00000 0 12900940.517 592634.925 22016387.961 10 0 59626 83700.00000 0 14514102.452 2682678.405 20822479.968 10 0 59626 84600.00000 0 16165925.889 4517600.759 19224892.563 10 0 59626 85500.00000 0 17795941.400 6068546.181 17254503.814 10 0 59627 0.00000 0 19341002.485 7319054.661 14949427.214 10 0 59627 900.00000 0 20737899.257 8265494.373 12354283.876 10 0 59627 1800.00000 0 21925996.153 8916955.936 9519349.445 10 0 59627 2700.00000 0 22849786.241 9294615.479 6499587.034 10 0 59627 3600.00000 0 23461252.733 9430591.584 3353587.115 10 0 59627 4500.00000 0 23721938.775 9366344.984 142433.306 10 0 59627 5400.00000 0 23604637.416 9150688.490 -3071483.911 10 0 59627 6300.00000 0 23094629.395 8837491.444 -6225682.335 10 0 59627 7200.00000 0 22190415.237 8483176.162 -9258807.837 10 0 59627 8100.00000 0 20903909.415 8144112.977 -12111834.439 10 0 59627 9000.00000 0 19260086.965 7874024.990 -14729220.541 10 0 59627 9900.00000 0 17296096.252 7721513.396 -17059997.853 10 0 59627 10800.00000 0 15059874.135 7727809.245 -19058771.160 10 0 59627 11700.00000 0 12608320.852 7924847.905 -20686608.809 10 0 59627 12600.00000 0 10005110.687 8333748.758 -21911806.094 10 0 59627 13500.00000 0 7318229.683 8963765.392 -22710506.402 10 0 59627 14400.00000 0 4617343.172 9811751.582 -23067167.934 10 0 59627 15300.00000 0 1971102.966 10862166.333 -22974866.856 10 0 59627 16200.00000 0 -555493.549 12087618.422 -22435431.105 10 0 59627 17100.00000 0 -2903582.591 13449927.986 -21459402.358 10 0 59627 18000.00000 0 -5022648.374 14901660.703 -20065827.067 10 0 59627 18900.00000 0 -6872381.064 16388070.159 -18281880.811 10 0 59627 19800.00000 0 -8424101.716 17849366.633 -16142333.466 10 0 59627 20700.00000 0 -9661695.864 19223216.632 -13688865.899 10 0 59627 21600.00000 0 -10582018.256 20447367.768 -10969251.801 10 0 59627 22500.00000 0 -11194753.607 21462288.221 -8036420.994 10 0 59627 23400.00000 0 -11521741.085 22213709.364 -4947423.014 10 0 59627 24300.00000 0 -11595793.020 22654964.333 -1762311.695 10 0 59627 25200.00000 0 -11459059.494 22749024.039 1457026.914 10 0 59627 26100.00000 0 -11161009.577 22470144.957 4648079.892 10 0 59627 27000.00000 0 -10756115.904 21805059.647 7748922.112 10 0 59627 27900.00000 0 -10301341.508 20753660.257 10699416.419 10 0 59627 28800.00000 0 -9853535.763 19329146.724 13442375.871 10 0 59627 29700.00000 0 -9466849.720 17557633.806 15924665.796 10 0 59627 30600.00000 0 -9190279.821 15477233.609 18098224.900 10 0 59627 31500.00000 0 -9065443.186 13136652.002 19920986.390 10 0 59627 32400.00000 0 -9124677.655 10593357.194 21357682.365 10 0 59627 33300.00000 0 -9389545.952 7911396.131 22380517.054 10 0 59627 34200.00000 0 -9869806.361 5158948.636 22969696.912 10 0 59627 35100.00000 0 -10562892.892 2405719.639 23113808.350 10 0 59627 36000.00000 0 -11453926.902 -279723.804 22810036.431 10 0 59627 36900.00000 0 -12516260.101 -2832561.738 22064220.651 10 0 59627 37800.00000 0 -13712527.112 -5194170.223 20890746.666 10 0 59627 38700.00000 0 -14996164.625 -7314309.855 19312275.567 10 0 59627 39600.00000 0 -16313334.840 -9152964.226 17359315.146 10 0 59627 40500.00000 0 -17605173.963 -10681752.972 15069640.351 10 0 59627 41400.00000 0 -18810272.740 -11884861.337 12487572.924 10 0 59627 42300.00000 0 -19867285.857 -12759447.846 9663132.972 10 0 59627 43200.00000 0 -20717561.204 -13315513.377 6651077.815 10 0 59627 44100.00000 0 -21307678.587 -13575237.180 3509845.854 10 0 59627 45000.00000 0 -21591790.659 -13571807.757 300425.510 10 0 59627 45900.00000 0 -21533666.700 -13347797.892 -2914829.029 10 0 59627 46800.00000 0 -21108351.944 -12953152.497 -6073412.071 10 0 59627 47700.00000 0 -20303371.047 -12442874.545 -9113886.539 10 0 59627 48600.00000 0 -19119423.444 -11874507.386 -11977085.554 10 0 59627 49500.00000 0 -17570539.627 -11305520.619 -14607271.319 10 0 59627 50400.00000 0 -15683690.306 -10790710.908 -16953227.814 10 0 59627 51300.00000 0 -13497863.524 -10379728.619 -18969265.345 10 0 59627 52200.00000 0 -11062647.325 -10114835.812 -20616116.744 10 0 59627 53100.00000 0 -8436376.594 -10028991.283 -21861707.273 10 0 59627 54000.00000 0 -5683920.984 -10144344.349 -22681783.010 10 0 59627 54900.00000 0 -2874205.961 -10471201.695 -23060385.345 10 0 59627 55800.00000 0 -77570.233 -11007511.408 -22990162.335 10 0 59627 56700.00000 0 2636930.462 -11738886.334 -22472510.945 10 0 59627 57600.00000 0 5204161.078 -12639166.024 -21517547.546 10 0 59627 58500.00000 0 7565376.799 -13671493.619 -20143907.356 10 0 59627 59400.00000 0 9670422.031 -14789862.217 -18378376.944 10 0 59627 60300.00000 0 11479567.841 -15941065.369 -16255367.090 10 0 59627 61200.00000 0 12964912.090 -17066969.138 -13816236.568 10 0 59627 62100.00000 0 14111285.066 -18107009.555 -11108480.323 10 0 59627 63000.00000 0 14916624.268 -19000809.749 -8184798.224 10 0 59627 63900.00000 0 15391804.348 -19690805.944 -5102063.111 10 0 59627 64800.00000 0 15559931.339 -20124771.197 -1920208.760 10 0 59627 65700.00000 0 15455132.776 -20258130.215 1298939.994 10 0 59627 66600.00000 0 15120896.506 -20055967.502 4492871.549 10 0 59627 67500.00000 0 14608029.891 -19494644.262 7599602.390 10 0 59627 68400.00000 0 13972326.819 -18562956.084 10558878.615 10 0 59627 69300.00000 0 13272041.868 -17262782.934 13313340.666 10 0 59627 70200.00000 0 12565278.707 -15609204.364 15809628.947 10 0 59627 71100.00000 0 11907402.903 -13630075.143 17999409.461 10 0 59627 72000.00000 0 11348587.833 -11365079.037 19840300.328 10 0 59627 72900.00000 0 10931596.420 -8864299.887 21296682.318 10 0 59627 73800.00000 0 10689891.204 -6186368.850 22340378.847 10 0 59627 74700.00000 0 10646151.399 -3396264.029 22951193.341 10 0 59627 75600.00000 0 10811258.507 -562852.583 23117294.585 10 0 59627 76500.00000 0 11183792.681 2243724.161 22835443.303 10 0 59627 77400.00000 0 11750060.871 4954715.729 22111055.932 10 0 59627 78300.00000 0 12484655.913 7505368.833 20958104.322 10 0 59627 79200.00000 0 13351523.807 9837368.542 19398852.850 10 0 59627 80100.00000 0 14305495.372 11901014.279 17463437.246 10 0 59627 81000.00000 0 15294219.151 13657041.387 15189292.193 10 0 59627 81900.00000 0 16260415.531 15078013.312 12620437.560 10 0 59627 82800.00000 0 17144358.296 16149226.777 9806635.890 10 0 59627 83700.00000 0 17886479.939 16869092.457 6802436.366 10 0 59627 84600.00000 0 18429991.311 17248975.239 3666122.869 10 0 59627 85500.00000 0 18723405.040 17312500.693 458586.111 99